Precipitable_Water
0.30 0.21 0.19 0.17 0.18 0.21 0.23 0.23 0.22 0.22 0.21 0.20 0.19 0.17 0.14 0.13 0.13 0.16 0.17 0.19 0.21 0.18 0.17 0.19 0.19 0.18 0.19 0.20 0.23 0.41 0.54 0.54 0.57 0.61 0.62 0.65 0.63 0.63 0.63 0.62 0.67 0.74 0.81 0.99 1.08 1.13 1.14 1.16 1.21 1.23 1.24 1.24 1.24 1.26 1.28 1.29 1.31 1.32 1.31 1.34 1.33 1.40 1.43 1.38 1.34 1.34 1.35 1.31 1.33 1.36 1.34 1.32 1.36 1.33 1.31 1.30 1.31 1.29 1.27 1.26 1.25 1.22 1.18 1.15 1.13 1.13
0.27 0.20 0.18 0.21 0.22 0.23 0.23 0.24 0.23 0.22 0.21 0.20 0.19 0.17 0.15 0.15 0.12 0.15 0.16 0.19 0.22 0.18 0.18 0.20 0.19 0.18 0.19 0.20 0.21 0.34 0.48 0.46 0.49 0.54 0.57 0.59 0.60 0.59 0.58 0.59 0.64 0.74 0.91 0.98 0.99 1.06 1.10 1.11 1.16 1.19 1.19 1.19 1.12 1.17 1.22 1.23 1.28 1.30 1.30 1.32 1.34 1.38 1.38 1.36 1.34 1.34 1.35 1.35 1.32 1.29 1.29 1.29 1.29 1.26 1.24 1.23 1.26 1.25 1.25 1.23 1.19 1.13 1.10 1.08 1.07 1.08
0.20 0.16 0.20 0.24 0.26 0.26 0.26 0.25 0.24 0.21 0.20 0.20 0.18 0.18 0.16 0.14 0.16 0.16 0.17 0.19 0.22 0.20 0.18 0.20 0.18 0.18 0.19 0.20 0.22 0.26 0.37 0.39 0.43 0.47 0.48 0.52 0.54 0.56 0.57 0.62 0.68 0.73 0.78 0.86 0.92 1.00 1.03 1.07 1.11 1.14 1.15 1.16 1.16 1.17 1.19 1.26 1.29 1.29 1.27 1.30 1.33 1.36 1.35 1.35 1.37 1.37 1.33 1.35 1.37 1.34 1.32 1.28 1.25 1.32 1.31 1.25 1.23 1.20 1.15 1.12 1.10 1.06 1.03 0.99 1.00 1.03
0.17 0.19 0.23 0.27 0.28 0.25 0.24 0.24 0.22 0.21 0.21 0.18 0.18 0.16 0.14 0.16 0.14 0.11 0.16 0.18 0.21 0.21 0.19 0.20 0.19 0.19 0.20 0.21 0.21 0.24 0.32 0.34 0.39 0.44 0.47 0.50 0.46 0.48 0.51 0.58 0.63 0.65 0.70 0.74 0.81 0.88 0.97 1.01 1.06 1.10 1.11 1.13 1.14 1.16 1.19 1.22 1.24 1.28 1.29 1.28 1.28 1.30 1.32 1.32 1.36 1.37 1.38 1.38 1.40 1.40 1.35 1.33 1.31 1.22 1.26 1.22 1.18 1.10 1.04 0.98 1.00 0.99 0.97 0.98 0.99 1.03
0.17 0.23 0.27 0.26 0.25 0.24 0.21 0.22 0.20 0.18 0.17 0.18 0.17 0.16 0.15 0.15 0.15 0.15 0.14 0.17 0.21 0.24 0.24 0.23 0.20 0.18 0.19 0.18 0.19 0.21 0.27 0.34 0.39 0.49 0.55 0.61 0.61 0.61 0.68 0.72 0.73 0.67 0.70 0.75 0.81 0.87 0.91 0.94 0.99 1.04 1.11 1.14 1.10 1.13 1.17 1.20 1.21 1.25 1.27 1.27 1.27 1.29 1.30 1.33 1.35 1.35 1.36 1.35 1.35 1.33 1.33 1.33 1.27 1.24 1.18 1.09 0.96 0.90 0.87 0.85 0.88 0.91 0.99 1.00 1.00 1.03
0.21 0.26 0.30 0.27 0.26 0.24 0.23 0.19 0.19 0.18 0.15 0.16 0.17 0.17 0.16 0.17 0.15 0.15 0.16 0.17 0.19 0.18 0.23 0.20 0.16 0.15 0.19 0.19 0.19 0.20 0.22 0.26 0.39 0.42 0.45 0.52 0.58 0.62 0.62 0.64 0.71 0.75 0.78 0.77 0.78 0.82 0.87 0.93 1.01 1.07 1.11 1.08 1.09 1.12 1.20 1.24 1.25 1.28 1.29 1.27 1.27 1.30 1.31 1.31 1.33 1.34 1.33 1.30 1.26 1.22 1.14 1.07 1.07 1.00 0.99 0.87 0.77 0.75 0.76 0.79 0.88 0.93 0.96 0.95 0.94 0.96
0.25 0.30 0.30 0.27 0.25 0.24 0.23 0.20 0.20 0.20 0.16 0.15 0.15 0.18 0.17 0.16 0.15 0.15 0.17 0.20 0.17 0.16 0.24 0.25 0.17 0.13 0.19 0.18 0.19 0.20 0.22 0.25 0.37 0.40 0.44 0.52 0.56 0.58 0.58 0.61 0.64 0.68 0.74 0.84 0.91 0.95 0.93 0.96 1.00 1.03 1.06 1.07 1.07 1.15 1.24 1.26 1.26 1.30 1.31 1.29 1.31 1.33 1.32 1.35 1.35 1.36 1.32 1.27 1.25 1.17 1.09 1.07 1.02 0.96 0.93 0.91 0.90 0.86 0.85 0.88 0.87 0.89 0.91 0.90 0.88 0.88
0.25 0.25 0.26 0.26 0.25 0.22 0.21 0.18 0.20 0.19 0.17 0.14 0.17 0.17 0.18 0.17 0.17 0.18 0.20 0.20 0.20 0.25 0.26 0.27 0.23 0.16 0.14 0.17 0.29 0.26 0.22 0.26 0.32 0.39 0.44 0.49 0.53 0.55 0.57 0.60 0.63 0.70 0.74 0.77 0.81 0.89 0.94 0.97 0.97 0.97 1.07 1.10 1.11 1.19 1.24 1.24 1.27 1.27 1.29 1.29 1.31 1.34 1.33 1.36 1.39 1.37 1.35 1.25 1.22 1.15 1.13 1.11 1.04 0.96 0.85 0.90 0.92 0.94 0.91 0.88 0.87 0.87 0.87 0.87 0.88 0.85
0.25 0.23 0.23 0.22 0.22 0.21 0.19 0.21 0.23 0.23 0.18 0.18 0.21 0.21 0.20 0.21 0.22 0.23 0.22 0.21 0.21 0.21 0.17 0.21 0.25 0.17 0.15 0.20 0.32 0.31 0.21 0.25 0.28 0.34 0.40 0.47 0.51 0.53 0.56 0.59 0.64 0.70 0.75 0.79 0.81 0.85 0.91 0.94 0.98 1.05 1.09 1.13 1.16 1.19 1.20 1.21 1.25 1.27 1.31 1.32 1.34 1.34 1.35 1.39 1.41 1.38 1.37 1.30 1.24 1.16 1.15 1.09 1.06 1.00 0.94 0.95 0.95 0.90 0.89 0.85 0.88 0.88 0.86 0.84 0.83 0.81
0.26 0.25 0.25 0.25 0.22 0.19 0.22 0.24 0.24 0.23 0.19 0.22 0.25 0.25 0.26 0.27 0.27 0.26 0.24 0.22 0.22 0.18 0.14 0.18 0.23 0.16 0.15 0.21 0.27 0.32 0.27 0.24 0.28 0.35 0.42 0.47 0.50 0.53 0.55 0.59 0.65 0.74 0.80 0.85 0.88 0.91 0.95 1.00 1.07 1.11 1.13 1.14 1.17 1.22 1.24 1.24 1.26 1.26 1.30 1.31 1.32 1.33 1.37 1.42 1.42 1.40 1.37 1.31 1.24 1.18 1.14 1.07 1.00 0.97 0.96 0.95 0.89 0.86 0.86 0.83 0.86 0.88 0.86 0.84 0.79 0.77
0.29 0.29 0.28 0.24 0.21 0.23 0.24 0.24 0.24 0.24 0.24 0.27 0.26 0.24 0.24 0.24 0.25 0.26 0.25 0.25 0.21 0.14 0.13 0.19 0.22 0.19 0.15 0.20 0.24 0.24 0.23 0.31 0.34 0.40 0.48 0.54 0.57 0.58 0.60 0.61 0.65 0.72 0.79 0.84 0.90 0.96 1.03 1.10 1.10 1.10 1.09 1.14 1.19 1.22 1.23 1.23 1.24 1.25 1.28 1.31 1.28 1.33 1.39 1.42 1.41 1.39 1.35 1.28 1.21 1.18 1.13 1.05 0.96 0.93 0.92 0.86 0.82 0.82 0.83 0.81 0.82 0.83 0.82 0.82 0.81 0.81
0.26 0.27 0.25 0.26 0.27 0.27 0.26 0.24 0.26 0.27 0.27 0.26 0.24 0.23 0.22 0.21 0.24 0.23 0.22 0.23 0.16 0.12 0.16 0.21 0.21 0.21 0.14 0.20 0.28 0.33 0.40 0.40 0.37 0.36 0.41 0.46 0.50 0.54 0.59 0.63 0.69 0.77 0.83 0.91 0.96 0.99 1.05 1.07 1.08 1.10 1.10 1.13 1.17 1.20 1.20 1.21 1.23 1.23 1.26 1.28 1.27 1.31 1.35 1.38 1.41 1.38 1.33 1.23 1.19 1.17 1.12 1.02 0.96 0.92 0.87 0.80 0.76 0.79 0.80 0.80 0.79 0.83 0.82 0.80 0.82 0.83
0.22 0.23 0.27 0.28 0.31 0.28 0.26 0.24 0.25 0.26 0.26 0.25 0.25 0.23 0.19 0.19 0.19 0.16 0.18 0.15 0.13 0.11 0.17 0.23 0.23 0.19 0.17 0.25 0.36 0.42 0.45 0.47 0.44 0.45 0.46 0.47 0.50 0.56 0.60 0.66 0.74 0.85 0.91 0.98 1.05 1.09 1.08 1.09 1.08 1.08 1.13 1.14 1.14 1.14 1.18 1.19 1.20 1.20 1.21 1.23 1.23 1.25 1.33 1.37 1.38 1.35 1.29 1.21 1.15 1.14 1.09 1.01 0.98 0.92 0.87 0.81 0.79 0.82 0.80 0.80 0.80 0.81 0.79 0.78 0.75 0.77
0.20 0.24 0.25 0.26 0.27 0.29 0.27 0.22 0.22 0.21 0.25 0.25 0.23 0.22 0.19 0.17 0.16 0.14 0.15 0.16 0.15 0.15 0.21 0.22 0.26 0.19 0.24 0.29 0.43 0.45 0.50 0.55 0.53 0.51 0.60 0.65 0.66 0.66 0.70 0.77 0.82 0.89 0.96 1.01 1.02 1.12 1.08 1.10 1.10 1.12 1.14 1.14 1.13 1.15 1.16 1.17 1.17 1.17 1.18 1.21 1.23 1.25 1.32 1.36 1.36 1.34 1.26 1.19 1.17 1.16 1.07 1.01 0.99 0.93 0.90 0.85 0.81 0.83 0.84 0.84 0.82 0.80 0.79 0.77 0.79 0.78
0.14 0.14 0.18 0.22 0.20 0.26 0.26 0.25 0.25 0.24 0.25 0.25 0.27 0.24 0.22 0.19 0.16 0.13 0.14 0.12 0.12 0.13 0.19 0.26 0.20 0.18 0.19 0.24 0.47 0.52 0.57 0.58 0.56 0.55 0.61 0.69 0.72 0.76 0.79 0.81 0.82 0.83 0.87 0.92 1.00 1.01 0.99 1.06 1.11 1.11 1.12 1.13 1.14 1.15 1.16 1.20 1.20 1.22 1.20 1.22 1.23 1.25 1.31 1.33 1.34 1.31 1.26 1.19 1.18 1.14 1.04 1.02 0.99 0.95 0.92 0.88 0.86 0.85 0.84 0.85 0.83 0.82 0.84 0.84 0.86 0.84
0.17 0.17 0.22 0.24 0.24 0.27 0.26 0.28 0.28 0.26 0.25 0.27 0.28 0.28 0.23 0.21 0.22 0.15 0.17 0.16 0.16 0.15 0.16 0.22 0.21 0.28 0.25 0.47 0.58 0.61 0.64 0.59 0.59 0.57 0.63 0.66 0.72 0.78 0.77 0.77 0.80 0.83 0.88 0.96 0.96 0.93 0.96 1.03 1.09 1.12 1.13 1.14 1.14 1.17 1.20 1.22 1.22 1.22 1.23 1.24 1.25 1.25 1.27 1.31 1.31 1.30 1.24 1.19 1.17 1.10 0.98 1.00 0.99 0.97 0.94 0.90 0.87 0.87 0.87 0.86 0.87 0.87 0.93 0.95 0.93 0.89
0.19 0.17 0.23 0.25 0.27 0.27 0.28 0.29 0.28 0.28 0.19 0.25 0.25 0.21 0.23 0.27 0.23 0.19 0.19 0.22 0.21 0.19 0.16 0.27 0.25 0.32 0.42 0.42 0.53 0.59 0.58 0.59 0.61 0.62 0.64 0.68 0.73 0.77 0.77 0.80 0.84 0.88 0.96 1.02 0.88 0.90 0.93 0.99 1.03 1.07 1.08 1.11 1.16 1.16 1.20 1.23 1.27 1.24 1.23 1.24 1.25 1.22 1.28 1.23 1.21 1.27 1.22 1.18 1.14 1.04 0.97 0.99 0.99 0.96 0.92 0.86 0.85 0.87 0.88 0.90 0.91 0.92 0.96 0.98 0.96 0.90
0.19 0.17 0.23 0.23 0.22 0.27 0.31 0.31 0.30 0.29 0.28 0.26 0.21 0.23 0.29 0.30 0.27 0.20 0.15 0.18 0.17 0.16 0.17 0.26 0.24 0.25 0.24 0.22 0.48 0.52 0.54 0.57 0.56 0.60 0.68 0.73 0.79 0.81 0.84 0.84 0.84 0.84 0.93 1.01 1.03 0.96 0.98 1.01 1.02 1.06 1.10 1.13 1.15 1.18 1.19 1.09 1.25 1.27 1.24 1.22 1.23 1.22 1.17 1.19 1.22 1.21 1.17 1.13 1.07 1.00 0.96 0.99 0.98 0.96 0.92 0.89 0.88 0.90 0.88 0.90 0.92 0.93 0.92 0.93 0.93 0.91
0.27 0.18 0.22 0.24 0.25 0.29 0.34 0.31 0.28 0.30 0.31 0.25 0.24 0.31 0.21 0.19 0.17 0.20 0.18 0.13 0.13 0.13 0.16 0.23 0.28 0.28 0.27 0.27 0.40 0.42 0.46 0.51 0.56 0.61 0.63 0.65 0.75 0.83 0.87 0.87 0.90 0.91 0.92 0.94 0.95 0.93 0.96 1.01 1.03 1.05 1.07 1.11 1.14 1.16 1.17 1.15 1.20 1.23 1.22 1.23 1.25 1.22 1.19 1.21 1.19 1.17 1.13 1.10 1.05 1.00 1.00 1.00 0.99 0.97 0.94 0.93 0.92 0.91 0.88 0.88 0.88 0.89 0.89 0.90 0.89 0.87
0.30 0.21 0.20 0.26 0.25 0.28 0.30 0.28 0.22 0.25 0.29 0.29 0.29 0.26 0.29 0.24 0.22 0.19 0.18 0.19 0.17 0.14 0.13 0.16 0.24 0.22 0.32 0.32 0.41 0.42 0.49 0.52 0.55 0.57 0.60 0.65 0.68 0.74 0.82 0.90 0.93 0.91 0.93 0.94 0.93 0.94 0.99 1.04 1.07 1.05 1.04 1.05 1.06 1.04 1.10 1.11 1.15 1.18 1.22 1.21 1.22 1.21 1.18 1.15 1.08 1.04 1.03 1.05 1.04 1.01 1.04 1.03 1.00 0.97 0.95 0.93 0.88 0.89 0.88 0.89 0.88 0.91 0.91 0.89 0.86 0.83
0.28 0.29 0.19 0.24 0.28 0.27 0.23 0.30 0.26 0.27 0.24 0.24 0.23 0.23 0.24 0.24 0.30 0.27 0.25 0.20 0.18 0.16 0.16 0.16 0.15 0.21 0.33 0.46 0.45 0.47 0.51 0.54 0.56 0.56 0.59 0.64 0.72 0.74 0.74 0.87 1.00 1.00 0.97 1.01 1.01 1.02 1.05 1.08 1.11 1.11 1.10 1.10 1.11 1.10 1.11 1.11 1.13 1.19 1.22 1.19 1.17 1.18 1.18 1.17 1.10 1.04 1.04 1.09 1.05 1.02 1.02 0.99 0.97 0.98 0.99 0.93 0.87 0.87 0.88 0.90 0.90 0.93 0.93 0.92 0.86 0.81
0.29 0.28 0.21 0.24 0.24 0.23 0.25 0.36 0.35 0.33 0.30 0.26 0.24 0.21 0.22 0.21 0.20 0.18 0.19 0.26 0.23 0.18 0.17 0.16 0.14 0.23 0.35 0.52 0.51 0.52 0.58 0.59 0.62 0.62 0.65 0.71 0.76 0.79 0.83 0.84 0.99 1.02 1.00 1.01 1.08 1.10 1.08 1.08 1.07 1.09 1.12 1.13 1.12 1.12 1.11 1.14 1.15 1.19 1.19 1.18 1.18 1.17 1.19 1.17 1.13 1.08 1.06 1.10 1.06 1.03 1.06 1.01 1.00 1.01 1.00 0.90 0.83 0.85 0.89 0.94 0.93 0.94 0.94 0.91 0.88 0.80
0.37 0.34 0.27 0.24 0.25 0.26 0.30 0.37 0.41 0.40 0.38 0.35 0.30 0.25 0.28 0.25 0.24 0.21 0.17 0.20 0.23 0.22 0.24 0.22 0.17 0.21 0.44 0.54 0.55 0.57 0.61 0.64 0.67 0.70 0.70 0.76 0.79 0.76 0.84 0.93 1.00 1.05 1.03 1.08 1.09 1.10 1.10 1.10 1.09 1.07 1.07 1.09 1.10 1.12 1.12 1.14 1.16 1.15 1.11 1.11 1.12 1.12 1.14 1.18 1.17 1.14 1.13 1.12 1.08 1.09 1.09 1.01 0.99 1.01 0.98 0.87 0.81 0.84 0.88 0.94 0.96 0.95 0.93 0.91 0.88 0.80
0.43 0.34 0.27 0.26 0.30 0.32 0.35 0.39 0.40 0.39 0.37 0.32 0.34 0.34 0.29 0.24 0.24 0.23 0.23 0.25 0.23 0.25 0.21 0.22 0.17 0.23 0.44 0.56 0.58 0.60 0.66 0.69 0.73 0.74 0.73 0.76 0.81 0.83 0.88 0.90 0.91 0.98 1.04 1.07 1.13 1.14 1.14 1.13 1.11 1.09 1.05 1.07 1.09 1.11 1.10 1.13 1.14 1.09 1.10 1.13 1.14 1.14 1.17 1.19 1.20 1.18 1.15 1.13 1.10 1.10 1.07 1.01 1.00 0.99 0.98 0.86 0.81 0.85 0.87 0.91 0.95 0.97 0.93 0.92 0.87 0.77
0.33 0.38 0.31 0.25 0.23 0.25 0.29 0.32 0.32 0.36 0.36 0.32 0.31 0.35 0.36 0.32 0.30 0.29 0.29 0.31 0.22 0.24 0.24 0.21 0.17 0.24 0.44 0.56 0.58 0.62 0.64 0.67 0.71 0.76 0.78 0.74 0.79 0.84 0.86 0.90 0.94 0.97 0.98 0.99 1.02 1.05 1.06 1.06 1.06 1.07 1.08 1.08 1.09 1.12 1.12 1.11 1.11 1.14 1.14 1.14 1.14 1.13 1.16 1.19 1.20 1.19 1.18 1.15 1.10 1.09 1.07 1.02 1.00 0.99 0.98 0.92 0.88 0.88 0.89 0.91 0.97 0.98 0.93 0.91 0.84 0.77
0.39 0.38 0.33 0.23 0.19 0.17 0.17 0.18 0.20 0.24 0.30 0.34 0.36 0.35 0.35 0.31 0.28 0.25 0.21 0.24 0.20 0.25 0.25 0.21 0.20 0.32 0.47 0.56 0.56 0.59 0.62 0.65 0.71 0.75 0.78 0.80 0.77 0.79 0.82 0.86 0.90 0.93 0.94 0.96 0.96 0.97 0.98 1.00 1.03 1.05 1.05 1.07 1.11 1.11 1.10 1.10 1.10 1.14 1.15 1.16 1.19 1.16 1.15 1.15 1.17 1.17 1.17 1.16 1.14 1.12 1.09 1.05 1.01 0.99 1.00 1.00 0.96 0.94 0.91 0.93 0.99 1.01 0.97 0.90 0.84 0.79
0.41 0.42 0.38 0.34 0.28 0.23 0.25 0.29 0.33 0.34 0.33 0.28 0.32 0.33 0.34 0.35 0.33 0.29 0.26 0.23 0.20 0.25 0.24 0.26 0.27 0.33 0.40 0.47 0.50 0.56 0.60 0.61 0.65 0.69 0.71 0.72 0.75 0.78 0.81 0.84 0.87 0.89 0.90 0.91 0.92 0.94 0.97 0.98 1.00 1.02 1.06 1.10 1.10 1.12 1.14 1.14 1.13 1.13 1.15 1.17 1.19 1.19 1.17 1.15 1.13 1.13 1.11 1.12 1.13 1.11 1.09 1.07 1.05 1.03 1.03 1.04 1.02 0.98 0.96 0.98 1.03 1.03 0.98 0.90 0.85 0.81
0.43 0.37 0.40 0.39 0.38 0.36 0.36 0.35 0.37 0.36 0.31 0.34 0.33 0.33 0.36 0.34 0.34 0.30 0.25 0.23 0.29 0.25 0.21 0.31 0.35 0.32 0.38 0.46 0.50 0.54 0.59 0.61 0.63 0.66 0.70 0.71 0.73 0.75 0.76 0.80 0.82 0.84 0.85 0.87 0.88 0.89 0.92 0.95 0.97 1.03 1.04 1.08 1.10 1.12 1.13 1.15 1.17 1.19 1.18 1.19 1.19 1.21 1.20 1.19 1.18 1.15 1.14 1.11 1.09 1.08 1.09 1.09 1.09 1.09 1.09 1.06 1.03 1.03 1.03 1.06 1.07 1.05 0.99 0.92 0.87 0.84
0.40 0.35 0.42 0.40 0.40 0.43 0.42 0.40 0.41 0.38 0.37 0.37 0.36 0.35 0.34 0.36 0.34 0.30 0.31 0.33 0.32 0.25 0.22 0.32 0.37 0.35 0.42 0.46 0.52 0.56 0.59 0.61 0.64 0.67 0.70 0.73 0.73 0.73 0.72 0.73 0.76 0.77 0.81 0.83 0.83 0.84 0.83 0.87 0.95 0.98 1.05 1.07 1.10 1.12 1.13 1.11 1.14 1.19 1.19 1.19 1.20 1.20 1.19 1.20 1.17 1.16 1.17 1.17 1.15 1.13 1.14 1.13 1.13 1.14 1.13 1.09 1.09 1.09 1.09 1.12 1.11 1.07 1.01 0.94 0.92 0.89
0.43 0.39 0.42 0.42 0.40 0.42 0.43 0.43 0.42 0.38 0.37 0.36 0.36 0.37 0.38 0.37 0.37 0.37 0.36 0.38 0.35 0.32 0.33 0.36 0.39 0.37 0.43 0.48 0.54 0.59 0.64 0.65 0.66 0.70 0.71 0.71 0.71 0.71 0.71 0.71 0.73 0.77 0.80 0.81 0.84 0.86 0.89 0.94 0.94 0.96 0.99 1.01 1.08 1.08 1.11 1.12 1.13 1.16 1.16 1.15 1.15 1.16 1.17 1.18 1.14 1.13 1.14 1.15 1.15 1.15 1.16 1.19 1.18 1.18 1.17 1.15 1.12 1.09 1.02 1.04 1.09 1.08 0.99 0.96 0.96 0.93
0.42 0.39 0.45 0.44 0.38 0.39 0.43 0.44 0.44 0.41 0.38 0.34 0.38 0.39 0.40 0.40 0.40 0.41 0.41 0.41 0.42 0.39 0.41 0.39 0.37 0.36 0.47 0.54 0.56 0.60 0.62 0.64 0.65 0.64 0.66 0.70 0.72 0.72 0.72 0.73 0.75 0.77 0.80 0.82 0.85 0.87 0.88 0.88 0.87 0.88 0.94 0.98 1.01 1.06 1.08 1.09 1.09 1.09 1.08 1.08 1.10 1.12 1.15 1.15 1.13 1.14 1.16 1.14 1.16 1.16 1.15 1.14 1.13 1.17 1.15 1.08 1.06 1.02 0.98 0.97 0.99 1.01 1.03 1.05 1.02 0.95
0.44 0.40 0.47 0.43 0.36 0.36 0.42 0.42 0.43 0.43 0.41 0.38 0.37 0.38 0.38 0.38 0.35 0.39 0.37 0.42 0.38 0.35 0.40 0.41 0.36 0.36 0.47 0.54 0.56 0.59 0.60 0.60 0.60 0.61 0.64 0.68 0.70 0.71 0.72 0.74 0.75 0.76 0.78 0.82 0.83 0.83 0.83 0.84 0.85 0.88 0.93 0.97 1.01 1.05 1.06 1.05 1.05 1.04 1.02 1.04 1.04 1.06 1.10 1.11 1.10 1.09 1.10 1.14 1.16 1.17 1.16 1.13 1.14 1.13 1.09 1.05 1.08 1.07 1.02 0.99 1.00 1.01 1.07 1.08 1.02 0.96
0.42 0.41 0.38 0.39 0.33 0.34 0.42 0.44 0.42 0.42 0.40 0.35 0.35 0.40 0.43 0.43 0.44 0.45 0.45 0.47 0.45 0.46 0.38 0.34 0.37 0.49 0.52 0.56 0.55 0.56 0.59 0.60 0.61 0.63 0.65 0.67 0.69 0.70 0.70 0.71 0.73 0.76 0.77 0.79 0.79 0.79 0.78 0.80 0.84 0.87 0.92 0.95 0.98 0.96 0.98 1.01 1.00 0.98 0.98 0.98 1.00 1.04 1.03 1.03 1.03 1.04 1.08 1.10 1.11 1.13 1.14 1.14 1.12 1.10 1.09 1.07 1.09 1.09 1.05 1.02 1.02 1.06 1.09 1.08 1.04 0.99
0.41 0.39 0.37 0.41 0.32 0.35 0.40 0.42 0.43 0.37 0.27 0.30 0.48 0.52 0.49 0.44 0.46 0.41 0.40 0.43 0.48 0.49 0.45 0.48 0.48 0.52 0.54 0.54 0.54 0.55 0.58 0.60 0.62 0.66 0.70 0.69 0.67 0.69 0.71 0.72 0.74 0.75 0.76 0.78 0.79 0.78 0.78 0.80 0.83 0.86 0.89 0.90 0.92 0.94 0.95 0.97 0.96 0.95 0.97 0.97 0.99 0.98 0.97 0.97 0.99 1.01 1.01 1.01 1.01 1.02 1.05 1.05 1.07 1.06 1.06 1.08 1.08 1.08 1.05 1.04 1.06 1.09 1.11 1.11 1.08 1.02
0.38 0.38 0.37 0.40 0.32 0.29 0.37 0.38 0.33 0.26 0.29 0.47 0.55 0.56 0.56 0.53 0.52 0.48 0.48 0.49 0.51 0.52 0.52 0.50 0.50 0.51 0.54 0.56 0.57 0.59 0.62 0.65 0.68 0.67 0.68 0.71 0.72 0.71 0.70 0.72 0.73 0.73 0.74 0.76 0.78 0.77 0.76 0.76 0.79 0.81 0.84 0.85 0.87 0.88 0.91 0.91 0.92 0.93 0.94 0.95 0.93 0.93 0.93 0.92 0.94 0.93 0.93 0.93 0.94 0.98 0.98 1.00 1.02 1.02 0.99 1.00 1.02 1.04 1.07 1.06 1.06 1.04 1.05 1.06 1.05 1.02
0.36 0.35 0.36 0.35 0.36 0.37 0.32 0.31 0.21 0.24 0.43 0.51 0.54 0.56 0.60 0.58 0.55 0.52 0.48 0.52 0.54 0.54 0.54 0.50 0.52 0.55 0.57 0.58 0.61 0.64 0.65 0.65 0.68 0.69 0.69 0.71 0.72 0.71 0.70 0.70 0.72 0.72 0.73 0.75 0.76 0.77 0.76 0.76 0.76 0.77 0.79 0.82 0.83 0.84 0.86 0.86 0.88 0.89 0.88 0.90 0.88 0.88 0.88 0.88 0.88 0.88 0.89 0.88 0.89 0.90 0.93 0.95 0.97 0.95 0.95 0.93 0.95 0.95 0.97 1.00 0.99 0.99 0.99 1.02 0.99 1.01
0.40 0.39 0.36 0.29 0.37 0.27 0.29 0.29 0.28 0.40 0.40 0.44 0.45 0.49 0.52 0.48 0.49 0.47 0.40 0.46 0.55 0.56 0.55 0.53 0.53 0.55 0.58 0.60 0.63 0.65 0.66 0.65 0.63 0.64 0.71 0.73 0.72 0.73 0.72 0.73 0.73 0.73 0.74 0.76 0.77 0.78 0.78 0.77 0.75 0.76 0.76 0.76 0.78 0.79 0.80 0.82 0.84 0.83 0.83 0.83 0.83 0.83 0.82 0.83 0.82 0.82 0.83 0.83 0.84 0.85 0.89 0.87 0.90 0.91 0.90 0.88 0.87 0.88 0.90 0.91 0.92 0.92 0.92 0.92 0.90 0.90
0.45 0.36 0.40 0.31 0.32 0.35 0.29 0.27 0.28 0.27 0.24 0.33 0.45 0.52 0.57 0.58 0.58 0.57 0.49 0.44 0.57 0.58 0.58 0.56 0.54 0.54 0.56 0.58 0.61 0.63 0.65 0.61 0.53 0.57 0.67 0.74 0.77 0.76 0.77 0.76 0.77 0.76 0.76 0.77 0.79 0.79 0.79 0.78 0.78 0.79 0.78 0.78 0.77 0.77 0.77 0.78 0.79 0.79 0.78 0.79 0.79 0.79 0.78 0.79 0.77 0.78 0.80 0.80 0.80 0.80 0.80 0.83 0.84 0.83 0.84 0.85 0.85 0.86 0.86 0.87 0.87 0.88 0.88 0.85 0.82 0.82
0.42 0.42 0.41 0.33 0.30 0.34 0.30 0.26 0.25 0.22 0.28 0.40 0.44 0.49 0.55 0.59 0.58 0.58 0.45 0.37 0.54 0.58 0.59 0.58 0.56 0.57 0.57 0.57 0.59 0.62 0.56 0.49 0.49 0.56 0.65 0.70 0.73 0.75 0.74 0.75 0.75 0.76 0.77 0.77 0.76 0.76 0.77 0.77 0.76 0.75 0.76 0.77 0.76 0.79 0.81 0.80 0.78 0.76 0.74 0.75 0.75 0.75 0.74 0.74 0.74 0.74 0.74 0.75 0.77 0.79 0.80 0.81 0.83 0.83 0.83 0.83 0.82 0.81 0.80 0.80 0.80 0.82 0.84 0.85 0.87 0.86
0.35 0.36 0.35 0.31 0.29 0.31 0.30 0.26 0.25 0.30 0.30 0.40 0.46 0.49 0.53 0.56 0.57 0.47 0.28 0.31 0.51 0.58 0.59 0.59 0.56 0.56 0.58 0.60 0.60 0.57 0.53 0.46 0.48 0.57 0.66 0.70 0.72 0.74 0.74 0.74 0.75 0.76 0.77 0.77 0.77 0.78 0.78 0.78 0.77 0.74 0.74 0.74 0.75 0.77 0.76 0.77 0.79 0.78 0.77 0.76 0.75 0.73 0.72 0.72 0.72 0.74 0.74 0.76 0.76 0.78 0.79 0.79 0.79 0.78 0.78 0.77 0.78 0.77 0.78 0.78 0.78 0.78 0.78 0.79 0.79 0.78
0.30 0.32 0.33 0.30 0.30 0.31 0.29 0.28 0.31 0.33 0.41 0.45 0.47 0.51 0.53 0.56 0.49 0.32 0.25 0.39 0.55 0.58 0.59 0.59 0.57 0.58 0.58 0.58 0.58 0.52 0.56 0.58 0.60 0.64 0.67 0.70 0.71 0.72 0.74 0.75 0.76 0.76 0.74 0.75 0.75 0.76 0.75 0.74 0.73 0.73 0.73 0.73 0.73 0.73 0.73 0.72 0.72 0.72 0.73 0.75 0.73 0.72 0.72 0.73 0.74 0.74 0.74 0.74 0.74 0.74 0.75 0.75 0.75 0.76 0.76 0.79 0.79 0.79 0.79 0.78 0.76 0.75 0.74 0.74 0.74 0.75
0.29 0.31 0.33 0.33 0.29 0.28 0.29 0.27 0.28 0.33 0.43 0.48 0.51 0.51 0.55 0.47 0.31 0.30 0.47 0.58 0.59 0.58 0.60 0.60 0.58 0.59 0.60 0.58 0.58 0.59 0.60 0.62 0.64 0.66 0.67 0.67 0.68 0.69 0.70 0.72 0.73 0.74 0.74 0.74 0.74 0.74 0.72 0.72 0.71 0.71 0.72 0.72 0.72 0.72 0.72 0.71 0.70 0.69 0.71 0.70 0.71 0.72 0.73 0.74 0.73 0.72 0.72 0.71 0.71 0.71 0.71 0.71 0.71 0.71 0.71 0.71 0.71 0.70 0.74 0.77 0.78 0.76 0.74 0.72 0.70 0.68
0.29 0.26 0.26 0.26 0.31 0.30 0.28 0.25 0.24 0.21 0.40 0.51 0.50 0.48 0.54 0.40 0.43 0.53 0.55 0.58 0.61 0.60 0.60 0.61 0.61 0.60 0.60 0.57 0.60 0.61 0.62 0.61 0.62 0.63 0.64 0.65 0.65 0.65 0.66 0.66 0.65 0.65 0.65 0.65 0.65 0.68 0.68 0.67 0.67 0.66 0.67 0.68 0.68 0.68 0.68 0.68 0.66 0.65 0.65 0.66 0.68 0.72 0.72 0.71 0.70 0.69 0.68 0.68 0.68 0.68 0.68 0.68 0.68 0.68 0.68 0.67 0.67 0.66 0.64 0.65 0.64 0.65 0.68 0.70 0.71 0.71
0.35 0.26 0.26 0.28 0.33 0.25 0.25 0.23 0.24 0.35 0.45 0.53 0.50 0.40 0.50 0.53 0.58 0.59 0.57 0.54 0.60 0.61 0.60 0.60 0.61 0.61 0.61 0.60 0.59 0.60 0.60 0.58 0.58 0.60 0.61 0.62 0.62 0.63 0.63 0.62 0.62 0.62 0.63 0.63 0.64 0.63 0.62 0.61 0.63 0.64 0.64 0.64 0.64 0.64 0.63 0.63 0.61 0.63 0.63 0.64 0.68 0.69 0.69 0.68 0.67 0.66 0.64 0.64 0.63 0.63 0.64 0.64 0.65 0.65 0.66 0.65 0.65 0.63 0.62 0.61 0.62 0.62 0.62 0.62 0.62 0.61
0.34 0.28 0.31 0.26 0.35 0.30 0.29 0.33 0.41 0.46 0.48 0.51 0.53 0.53 0.56 0.59 0.60 0.60 0.59 0.57 0.57 0.59 0.63 0.60 0.59 0.61 0.61 0.61 0.59 0.58 0.56 0.55 0.55 0.56 0.54 0.54 0.56 0.56 0.56 0.57 0.58 0.58 0.59 0.59 0.60 0.63 0.62 0.61 0.61 0.61 0.61 0.62 0.62 0.62 0.62 0.61 0.59 0.58 0.58 0.62 0.65 0.65 0.65 0.64 0.64 0.63 0.61 0.61 0.61 0.61 0.61 0.61 0.61 0.60 0.61 0.61 0.62 0.60 0.59 0.59 0.59 0.57 0.58 0.57 0.56 0.55
0.36 0.36 0.37 0.32 0.30 0.39 0.41 0.43 0.45 0.45 0.47 0.49 0.53 0.55 0.56 0.57 0.60 0.60 0.58 0.56 0.58 0.61 0.63 0.60 0.60 0.62 0.61 0.61 0.57 0.56 0.54 0.53 0.51 0.50 0.50 0.50 0.51 0.52 0.52 0.52 0.53 0.54 0.54 0.55 0.56 0.57 0.57 0.57 0.57 0.57 0.58 0.59 0.61 0.61 0.61 0.61 0.60 0.57 0.57 0.59 0.60 0.60 0.60 0.59 0.58 0.57 0.57 0.57 0.57 0.57 0.57 0.56 0.57 0.57 0.57 0.56 0.56 0.55 0.55 0.53 0.52 0.51 0.50 0.49 0.48 0.47
0.29 0.31 0.28 0.23 0.28 0.25 0.21 0.37 0.37 0.38 0.44 0.47 0.49 0.53 0.56 0.58 0.58 0.59 0.59 0.59 0.60 0.62 0.62 0.62 0.61 0.61 0.60 0.58 0.55 0.52 0.51 0.51 0.50 0.49 0.48 0.48 0.48 0.48 0.48 0.48 0.48 0.49 0.50 0.50 0.52 0.53 0.53 0.52 0.52 0.52 0.53 0.53 0.56 0.56 0.56 0.56 0.57 0.57 0.58 0.57 0.57 0.56 0.56 0.54 0.53 0.52 0.52 0.52 0.52 0.52 0.52 0.50 0.49 0.48 0.48 0.48 0.47 0.47 0.47 0.46 0.45 0.44 0.43 0.43 0.42 0.41
0.20 0.31 0.23 0.24 0.23 0.21 0.22 0.30 0.33 0.37 0.40 0.44 0.46 0.47 0.49 0.52 0.55 0.58 0.59 0.60 0.61 0.62 0.61 0.60 0.60 0.59 0.58 0.55 0.55 0.52 0.51 0.51 0.50 0.49 0.48 0.46 0.46 0.46 0.47 0.47 0.47 0.48 0.49 0.50 0.51 0.51 0.51 0.50 0.49 0.50 0.50 0.50 0.52 0.53 0.53 0.53 0.53 0.54 0.54 0.54 0.54 0.53 0.52 0.51 0.50 0.49 0.49 0.49 0.48 0.48 0.47 0.46 0.45 0.43 0.42 0.42 0.42 0.40 0.40 0.40 0.40 0.38 0.37 0.36 0.37 0.36
0.23 0.25 0.16 0.22 0.19 0.24 0.28 0.30 0.32 0.33 0.34 0.37 0.40 0.44 0.47 0.49 0.51 0.53 0.56 0.57 0.58 0.59 0.60 0.60 0.60 0.57 0.56 0.55 0.55 0.52 0.50 0.49 0.49 0.48 0.47 0.47 0.47 0.47 0.48 0.49 0.50 0.50 0.51 0.51 0.53 0.53 0.52 0.51 0.50 0.49 0.49 0.49 0.51 0.50 0.50 0.50 0.51 0.51 0.50 0.50 0.49 0.48 0.46 0.45 0.45 0.45 0.44 0.44 0.44 0.43 0.43 0.41 0.40 0.40 0.39 0.39 0.39 0.40 0.39 0.38 0.37 0.36 0.36 0.38 0.38 0.37
0.21 0.16 0.21 0.20 0.16 0.16 0.18 0.22 0.27 0.20 0.22 0.31 0.36 0.41 0.44 0.48 0.49 0.50 0.52 0.53 0.55 0.56 0.58 0.57 0.58 0.59 0.58 0.56 0.54 0.52 0.48 0.48 0.48 0.48 0.47 0.48 0.48 0.49 0.49 0.50 0.51 0.51 0.52 0.53 0.54 0.53 0.52 0.52 0.51 0.50 0.49 0.49 0.50 0.49 0.49 0.48 0.49 0.49 0.48 0.48 0.47 0.46 0.44 0.44 0.43 0.42 0.42 0.43 0.42 0.42 0.41 0.40 0.39 0.39 0.38 0.38 0.37 0.37 0.37 0.40 0.39 0.37 0.35 0.33 0.35 0.35
0.17 0.16 0.18 0.14 0.14 0.15 0.23 0.26 0.28 0.28 0.30 0.33 0.38 0.42 0.45 0.48 0.49 0.48 0.49 0.50 0.51 0.52 0.53 0.52 0.52 0.54 0.54 0.54 0.54 0.51 0.49 0.48 0.49 0.50 0.48 0.49 0.49 0.50 0.50 0.50 0.49 0.50 0.50 0.52 0.51 0.50 0.50 0.50 0.50 0.49 0.48 0.48 0.49 0.49 0.49 0.48 0.49 0.49 0.49 0.48 0.48 0.46 0.44 0.43 0.41 0.40 0.40 0.40 0.40 0.40 0.39 0.38 0.36 0.36 0.36 0.36 0.36 0.35 0.33 0.32 0.34 0.35 0.35 0.34 0.33 0.33
Wind_Speed
17 17 17 16 16 15 16 16 16 15 14 14 14 14 15 15 15 14 15 16 15 16 18 19 19 20 20 19 19 21 22 22 22 21 21 20 19 19 19 19 19 19 20 18 17 16 15 14 14 14 13 13 12 12 13 13 13 12 12 12 12 11 11 11 11 11 11 12 11 11 11 11 11 11 11 10 10 9 9 9 8 8 8 8 7 8
16 18 17 17 17 16 16 15 15 14 14 15 15 15 15 16 15 15 16 17 15 16 17 17 18 20 20 20 20 21 22 22 23 22 22 22 21 20 20 20 20 19 19 19 18 17 16 15 15 14 13 13 12 12 12 13 13 13 12 12 12 12 12 11 11 11 11 12 12 12 11 11 11 11 10 10 10 10 9 9 8 8 7 7 7 7
16 18 17 17 17 15 14 14 14 14 15 15 14 15 16 15 14 15 15 15 14 15 16 16 17 19 20 20 20 22 23 23 25 25 24 24 22 21 21 21 20 20 19 20 18 18 18 17 16 15 14 13 13 13 13 13 13 13 13 13 13 13 13 12 12 12 12 12 12 12 11 11 11 11 11 11 10 10 9 9 8 8 7 7 7 7
16 17 17 17 16 14 14 14 13 14 15 15 15 15 16 14 13 14 14 13 14 15 16 16 16 18 18 18 20 23 24 24 25 26 25 24 23 23 22 21 21 21 21 20 18 18 18 17 17 16 15 14 13 13 13 13 14 14 14 14 14 14 14 14 13 13 12 12 12 12 12 12 12 12 12 11 10 10 9 9 8 8 7 7 7 7
18 16 14 13 14 14 15 14 13 14 15 16 16 16 16 15 14 15 14 13 14 14 14 14 14 15 15 15 18 20 22 23 22 22 21 22 22 22 21 20 21 21 21 21 19 19 19 18 17 16 15 14 14 14 13 13 14 15 15 15 14 14 14 14 14 14 13 13 12 12 12 12 13 13 12 11 10 9 9 8 8 8 7 7 7 7
18 16 14 12 12 13 13 14 14 14 14 15 16 17 17 16 16 16 14 12 12 12 12 11 11 13 13 15 16 16 18 20 19 20 20 21 21 21 21 21 20 20 21 22 21 20 19 18 17 16 15 15 14 14 14 14 15 16 16 15 15 15 15 15 14 14 14 14 14 13 14 14 14 13 12 12 11 10 9 8 8 7 7 7 7 6
16 15 15 14 13 13 13 14 14 13 12 13 14 15 16 16 16 15 13 12 12 13 13 11 11 13 13 14 15 14 15 17 18 18 19 20 20 21 21 21 20 20 20 22 22 21 20 19 17 16 16 15 15 14 14 14 15 16 16 15 15 15 15 15 15 15 15 15 15 15 15 16 15 14 13 12 11 10 9 9 8 7 7 7 7 6
14 14 14 14 13 13 12 12 12 12 11 12 12 12 13 14 15 14 13 13 14 14 14 12 11 13 13 13 14 13 13 15 16 17 18 19 20 21 21 21 21 20 20 21 22 21 21 19 18 17 16 15 15 15 15 15 15 16 16 15 15 15 15 15 15 16 16 16 16 16 16 16 15 14 13 12 12 11 10 9 9 8 7 7 7 7
13 13 14 14 13 13 12 11 11 10 10 11 10 10 12 13 14 14 13 13 14 13 15 14 12 11 13 13 12 10 13 14 16 17 17 18 20 20 21 22 22 20 20 20 21 22 21 19 18 17 16 15 15 15 15 15 15 16 16 15 15 15 15 15 16 17 17 16 16 16 17 16 15 14 13 13 12 11 10 10 9 8 8 7 7 7
13 14 14 13 13 13 12 11 10 10 10 10 9 9 10 10 11 12 12 12 11 12 15 16 13 11 11 12 10 9 11 13 14 15 15 17 18 19 20 21 21 20 20 20 21 22 21 19 18 16 16 15 15 15 15 15 16 16 16 16 15 15 14 15 16 17 17 17 17 17 17 16 16 15 14 13 12 11 11 10 9 8 8 7 6 6
13 13 13 13 13 13 12 11 11 12 11 9 8 9 9 10 11 11 11 11 10 12 16 16 14 12 11 11 11 10 11 12 13 13 14 15 16 18 19 20 20 20 20 20 21 22 20 19 18 17 16 16 15 15 15 16 16 16 16 16 16 16 15 14 16 17 17 18 18 18 17 17 17 16 15 14 13 12 11 10 9 9 8 7 6 6
13 14 14 14 14 13 12 11 11 12 11 10 9 9 9 10 10 10 10 11 11 13 15 14 13 12 12 12 12 11 11 12 13 14 14 15 16 17 19 19 19 20 20 20 21 22 21 20 18 17 17 16 15 15 15 16 16 16 16 17 17 17 16 15 16 17 17 18 18 18 18 18 17 17 16 14 14 13 12 11 10 9 8 7 7 6
14 15 15 14 14 14 12 11 10 10 10 10 9 9 9 10 9 10 11 11 12 14 14 12 12 12 13 13 13 11 11 11 12 13 13 14 15 16 17 18 18 19 20 20 20 20 20 18 17 17 16 15 14 15 15 16 16 16 16 17 17 17 16 16 17 18 18 18 18 18 19 18 18 17 16 15 14 13 12 10 10 9 8 7 7 7
14 14 14 13 13 13 13 12 11 10 10 10 10 11 10 9 8 10 11 10 11 13 14 12 11 12 12 13 13 12 11 11 12 13 13 13 14 14 15 17 18 19 20 19 19 20 19 16 15 16 16 15 15 15 15 16 15 15 16 16 17 18 17 17 18 19 19 18 19 19 19 19 18 17 16 15 14 13 11 10 9 9 8 7 7 7
12 12 14 14 12 12 13 13 12 10 10 11 11 11 11 11 10 11 11 10 11 11 12 12 12 12 12 12 13 13 12 10 11 12 12 12 13 15 15 16 18 19 20 19 19 20 19 16 15 15 16 16 16 16 16 16 16 15 15 16 17 18 19 19 19 19 20 20 19 19 19 19 18 17 16 15 13 13 12 10 9 8 8 8 8 8
12 13 15 14 12 12 12 12 11 10 11 12 11 10 11 12 11 10 10 10 10 10 11 12 12 12 13 12 12 11 10 9 8 9 10 11 13 15 15 16 17 19 20 21 21 20 19 17 15 15 16 17 18 17 15 14 15 15 15 15 17 19 19 20 20 20 20 20 20 19 19 19 18 17 16 15 14 13 12 11 9 9 8 9 9 8
12 14 14 12 12 13 13 12 11 12 12 11 12 12 12 11 10 9 10 9 7 9 12 12 12 12 11 12 12 10 9 9 8 9 10 10 13 15 16 16 17 18 20 21 20 19 19 17 15 14 15 17 17 15 14 13 12 12 14 15 16 18 19 20 20 20 20 21 20 20 19 19 18 17 16 15 14 14 12 11 10 9 9 9 9 8
12 13 13 13 14 14 13 12 11 12 12 11 12 13 11 10 9 9 9 7 7 9 11 11 12 12 11 11 12 10 9 9 9 10 10 11 13 15 16 17 18 18 20 20 18 17 17 16 14 13 14 15 15 14 13 14 13 11 13 14 16 17 18 19 19 19 20 20 20 20 20 19 18 17 16 15 15 14 13 12 11 10 9 9 9 9
12 12 13 14 15 13 11 11 11 12 12 13 13 12 10 10 11 10 10 9 9 10 10 10 12 13 13 12 11 10 10 10 10 10 10 10 12 13 14 16 17 17 19 19 17 16 16 15 14 14 14 14 14 13 13 14 14 13 13 14 15 16 17 17 18 19 19 19 19 19 19 18 17 16 15 15 15 14 13 13 12 11 10 10 9 9
12 12 13 14 14 13 11 11 12 12 11 12 12 12 11 10 11 11 11 10 10 10 10 10 11 13 14 13 11 11 12 11 11 11 10 11 10 10 11 13 15 17 18 18 17 15 15 14 14 13 14 14 14 14 14 14 15 14 14 14 14 15 17 18 19 19 20 19 19 19 18 17 17 17 16 15 15 14 14 14 13 11 11 10 9 9
13 12 14 14 13 12 12 12 13 13 12 12 13 14 13 11 11 10 10 10 10 10 10 10 11 13 14 13 12 13 13 13 12 12 11 11 10 10 11 12 14 17 18 18 17 15 13 14 13 13 13 14 14 14 15 15 16 15 15 15 15 15 16 19 19 20 20 19 19 19 19 18 18 17 16 15 15 15 15 14 13 12 11 9 9 9
13 13 14 14 13 13 14 14 13 12 12 12 13 15 14 13 12 11 10 11 11 10 10 10 11 12 13 13 13 13 13 13 12 12 11 11 10 11 13 13 14 16 17 16 14 13 13 13 14 14 14 14 14 15 15 16 16 16 16 16 15 15 16 18 19 20 20 19 19 19 19 18 18 17 17 16 16 16 15 14 13 12 11 10 10 10
13 11 12 13 13 14 16 15 13 12 11 11 11 13 14 13 13 12 11 12 11 10 10 10 10 11 12 12 12 12 12 11 11 10 9 9 10 10 10 11 13 14 14 14 12 12 12 13 14 15 15 14 14 15 15 16 16 16 16 16 16 16 17 18 19 20 20 20 19 19 18 18 18 18 17 17 16 16 15 14 14 13 12 11 10 10
14 11 11 12 13 13 14 14 13 11 10 10 10 11 12 13 13 13 13 12 11 11 10 9 9 12 12 11 11 11 11 10 10 9 8 8 9 8 7 8 10 11 11 12 12 12 12 13 13 14 15 15 15 14 14 15 16 16 16 16 16 16 17 18 19 20 20 20 19 19 18 18 18 18 18 17 17 16 15 15 14 14 13 12 11 11
15 13 12 11 11 12 13 13 13 12 10 10 11 11 11 11 11 13 13 11 11 12 11 9 10 11 11 11 10 10 9 9 9 9 8 8 8 8 7 7 8 9 10 10 10 11 11 12 12 13 14 15 15 16 16 15 15 15 15 15 16 16 16 17 18 19 20 20 19 19 18 18 18 18 18 18 18 17 16 15 15 15 14 13 12 11
14 14 14 12 12 13 13 14 14 14 12 12 12 11 11 11 11 13 13 12 13 13 11 11 11 11 10 10 9 9 9 8 8 7 7 7 6 6 5 5 6 7 7 8 9 9 10 11 11 12 14 15 15 16 16 15 15 15 15 15 16 16 17 17 18 19 19 20 19 19 19 19 19 19 19 19 19 19 18 17 16 16 15 14 14 13
12 13 14 14 14 15 15 15 15 15 13 13 13 12 11 12 12 12 12 13 14 13 12 13 12 10 10 10 9 10 9 8 8 6 5 5 4 4 4 4 6 6 6 7 8 8 9 9 9 10 11 13 14 14 14 14 15 14 14 15 15 16 16 17 18 19 19 20 20 20 20 20 20 20 20 20 20 20 19 19 18 17 16 16 15 14
11 12 13 13 13 15 15 14 14 14 13 12 13 12 11 12 11 11 11 13 13 12 13 14 13 11 11 10 9 9 9 8 8 6 5 4 4 4 3 3 4 5 5 5 6 7 7 7 9 10 10 11 12 13 13 13 14 14 14 14 14 15 16 17 17 18 20 20 20 21 21 21 21 21 21 21 20 20 20 20 20 19 17 16 16 15
11 12 13 13 13 13 12 12 12 12 13 12 12 12 11 11 10 10 12 12 12 12 14 13 12 11 11 10 9 9 9 8 7 6 5 4 4 5 4 3 3 3 4 3 4 6 6 7 8 10 11 11 11 12 13 13 13 13 12 12 12 13 14 15 15 16 18 19 20 21 21 22 22 22 22 22 21 21 21 21 22 21 19 18 16 16
10 12 13 14 13 12 12 12 11 11 12 12 12 12 12 12 11 10 11 11 11 11 12 11 11 11 11 10 10 9 9 8 7 6 5 4 4 4 4 3 2 2 2 3 3 5 6 6 7 8 10 10 10 11 11 11 11 11 10 10 10 11 12 13 14 15 16 17 18 19 20 20 21 21 21 21 21 22 22 22 22 23 22 20 18 17
9 11 12 12 13 13 13 12 11 11 12 11 11 12 12 12 12 12 12 11 11 11 10 10 11 12 12 11 10 10 9 7 6 6 6 5 5 5 4 4 4 3 3 3 3 4 5 5 6 6 7 7 8 9 9 10 9 8 8 8 8 9 10 11 11 12 14 14 15 16 17 17 17 17 16 16 16 17 18 18 19 21 21 20 18 17
8 9 10 10 12 13 14 13 13 12 12 11 10 11 13 13 14 14 14 13 13 12 11 11 12 13 13 12 11 10 9 8 6 6 6 6 6 6 5 5 5 5 4 4 4 4 4 3 3 4 4 5 6 7 8 8 8 7 7 6 7 8 8 8 8 9 10 11 11 12 13 14 14 14 14 13 13 13 14 15 16 18 18 18 17 17
8 8 8 9 10 12 13 14 14 13 13 13 12 12 13 15 15 15 14 14 15 14 13 12 13 12 12 12 12 11 10 8 8 8 7 7 6 6 6 6 6 6 5 5 4 4 3 2 2 3 3 4 5 6 6 7 6 6 6 6 6 7 7 7 7 7 8 8 9 10 10 11 12 12 12 12 12 12 13 13 15 16 16 16 15 15
8 7 8 8 8 10 11 11 12 13 14 15 15 14 14 14 13 13 14 14 15 15 14 13 12 12 11 11 11 11 10 9 8 8 8 8 7 7 6 6 6 6 6 5 5 5 4 3 3 3 3 3 4 5 6 7 7 7 6 6 6 6 6 6 6 6 6 6 7 8 9 10 10 10 10 11 11 11 11 12 13 14 14 14 14 14
9 8 8 8 7 8 8 8 9 11 13 14 14 14 14 13 13 12 12 13 13 14 13 13 13 13 13 12 11 11 10 9 8 8 8 8 8 8 8 7 7 7 7 6 6 5 5 4 4 4 4 4 4 4 5 5 6 6 6 6 6 5 5 5 5 6 6 5 6 6 7 8 9 9 9 10 11 11 10 11 12 13 13 14 15 15
9 8 8 8 8 8 8 7 7 9 10 11 11 12 12 13 13 13 12 12 12 13 13 13 13 14 14 14 13 11 10 9 8 8 9 9 10 9 9 9 9 8 8 7 6 6 5 4 4 5 5 5 5 5 5 5 6 6 5 5 5 5 5 5 5 5 5 5 5 5 6 7 8 8 8 9 10 10 11 11 12 12 13 14 15 16
8 9 9 8 8 8 8 7 7 8 8 8 8 9 10 11 12 13 13 13 13 13 13 12 12 13 14 14 14 13 12 10 9 10 10 9 10 10 9 9 8 8 7 7 6 7 6 5 5 6 6 6 6 5 6 6 6 6 6 6 6 6 6 6 5 5 5 4 5 5 5 6 8 8 8 8 9 9 11 12 12 13 14 14 15 15
8 9 10 9 9 9 8 8 8 8 8 8 8 9 9 10 11 12 12 12 12 12 12 13 12 13 13 14 15 15 13 11 12 13 11 10 9 9 8 8 7 7 6 6 6 6 6 6 6 6 7 6 6 6 6 7 6 6 6 6 6 6 6 6 6 6 5 5 5 6 6 7 8 8 9 9 9 10 11 12 12 13 15 15 16 16
7 8 9 9 9 9 8 8 8 8 8 8 9 10 9 9 10 10 9 10 11 12 13 13 12 13 14 14 14 14 13 12 13 14 13 12 10 9 9 9 8 7 7 6 5 6 7 7 7 6 6 6 6 6 6 6 7 6 6 6 7 6 6 6 6 7 6 6 7 7 7 8 8 9 9 10 10 11 12 13 14 15 16 17 18 18
8 8 8 8 9 9 9 8 8 9 9 9 9 10 10 10 10 9 9 10 11 11 12 12 12 13 14 13 13 13 12 12 14 14 14 13 11 9 9 9 8 8 7 6 5 6 7 7 8 7 7 6 6 6 6 6 7 7 7 7 7 7 7 7 7 7 8 8 8 8 8 9 9 10 11 11 12 13 14 15 16 17 17 18 19 20
8 8 8 7 8 8 9 9 9 9 9 10 11 11 10 10 9 9 9 11 11 11 12 12 12 13 13 12 11 11 11 11 13 14 13 12 11 10 10 9 8 8 7 6 7 7 7 7 8 8 8 7 7 7 6 6 7 8 8 8 8 8 8 8 8 8 9 9 9 9 10 11 11 12 13 14 14 15 16 17 18 18 19 19 20 20
7 8 8 8 8 8 9 9 9 10 9 10 12 12 10 9 10 10 10 11 12 13 13 13 13 13 12 11 11 11 11 11 12 13 12 12 12 11 11 10 10 9 8 8 8 7 8 8 8 8 8 8 8 8 7 7 8 8 8 9 8 8 9 9 9 9 9 10 11 11 12 13 14 15 16 16 17 18 19 19 20 21 21 22 22 23
6 7 7 8 9 9 8 8 9 10 10 10 11 11 10 10 10 10 10 10 12 13 13 13 13 12 12 11 11 12 12 12 12 12 12 12 12 11 11 11 11 10 10 10 9 9 9 9 9 8 8 8 8 8 8 8 9 9 9 9 9 10 10 10 10 11 11 12 13 14 15 16 17 17 18 19 20 21 21 22 23 23 23 24 25 25
4 5 6 8 8 8 8 8 9 10 11 11 10 10 11 11 11 10 9 10 12 13 13 13 12 12 12 12 12 12 12 12 12 12 12 12 12 12 12 12 12 11 11 11 11 11 10 10 10 10 10 9 9 9 9 10 10 11 11 11 11 12 12 12 13 13 14 14 15 16 17 18 19 20 21 21 22 23 23 24 24 25 25 26 27 27
4 4 5 6 7 7 8 9 9 10 10 9 9 10 10 10 10 10 10 10 11 12 12 12 12 12 13 13 13 12 12 12 12 12 12 13 13 13 13 13 13 13 12 12 13 13 13 13 12 12 12 12 11 11 11 11 12 12 12 13 14 14 15 15 16 17 17 18 18 19 19 20 21 21 22 23 23 24 24 25 26 26 27 28 28 29
3 3 4 5 6 6 7 7 8 9 9 8 8 8 9 8 9 9 9 9 10 11 11 11 12 13 13 13 14 13 13 13 13 13 12 12 13 13 13 13 13 13 13 13 13 14 14 14 14 14 14 13 13 13 13 13 13 13 13 14 14 15 16 17 17 18 18 19 20 20 21 21 22 22 23 24 24 25 26 26 27 28 28 29 29 30
3 3 3 4 5 6 7 8 9 9 9 8 7 7 7 7 8 8 8 8 9 10 10 11 12 12 12 13 14 14 14 14 14 13 13 13 13 13 13 13 13 13 13 13 14 14 14 14 14 15 14 14 14 14 14 14 14 14 14 15 15 15 16 17 18 18 19 20 21 21 22 23 23 24 24 25 25 26 27 27 28 29 29 30 31 31
3 3 3 4 5 6 7 8 8 8 8 8 7 7 7 7 8 8 8 8 8 9 10 11 12 12 12 13 13 14 14 14 14 13 13 14 14 14 14 14 14 14 14 14 14 14 14 14 14 15 15 15 15 15 15 15 15 16 16 17 17 18 18 19 19 20 21 21 22 23 24 24 25 25 26 26 27 27 28 28 29 29 30 31 32 32
3 3 3 4 5 5 7 8 8 7 7 8 8 8 8 8 9 9 9 9 9 10 10 10 11 11 12 12 13 13 14 14 14 14 14 14 15 15 15 15 15 15 15 15 16 16 15 15 15 15 15 16 16 16 16 16 17 17 18 18 19 19 19 20 20 21 22 22 23 24 24 25 25 26 26 27 28 28 29 29 30 30 31 31 32 33
4 3 4 4 5 6 7 8 8 8 8 9 9 9 9 10 10 10 10 11 10 11 12 11 11 11 11 12 13 14 14 14 14 14 14 15 15 16 16 16 16 16 16 16 16 17 17 16 16 16 17 17 17 17 17 17 18 18 19 19 19 20 20 20 21 22 22 23 24 24 25 25 26 26 26 27 27 28 28 29 30 30 31 31 32 33
4 4 5 5 6 7 8 8 8 8 8 9 10 10 11 11 11 11 12 12 12 13 14 14 14 13 13 14 14 15 15 15 15 15 15 15 16 17 18 18 18 18 18 18 17 17 17 18 17 17 18 18 19 19 19 19 19 19 20 20 20 20 21 21 22 23 23 24 24 25 25 25 26 26 26 27 27 27 28 28 29 29 30 30 31 32
Wind_Direction
231 236 240 239 239 239 241 241 240 243 247 250 252 253 250 250 246 236 236 239 237 241 244 240 240 242 241 236 232 229 228 229 230 230 230 230 230 230 227 225 224 224 223 221 219 218 219 220 219 218 220 222 226 230 232 234 232 232 232 228 224 220 216 218 220 220 219 217 217 218 219 217 214 213 215 217 216 213 213 212 213 215 218 221 225 228
233 236 239 237 235 238 241 241 241 245 250 253 253 257 255 249 247 241 238 240 236 238 243 242 244 246 243 239 234 230 230 231 229 230 231 230 230 228 225 222 221 223 223 221 221 220 219 220 220 221 223 223 225 228 230 232 230 230 230 223 219 216 215 219 220 218 216 216 215 215 215 212 210 211 212 212 211 208 208 209 210 212 214 218 222 225
238 238 237 234 235 239 245 244 243 246 248 249 250 254 255 249 250 248 241 241 238 239 245 246 246 247 245 242 236 232 231 231 228 227 228 227 226 224 221 220 219 220 221 221 221 219 218 220 221 222 224 225 227 229 232 233 230 229 227 221 220 220 219 219 219 220 220 219 219 217 213 210 210 208 205 205 205 204 206 208 207 209 212 217 220 221
236 238 236 234 235 238 246 246 242 247 250 247 246 250 251 248 248 247 244 243 242 244 248 249 250 248 248 247 241 236 233 232 230 227 226 224 222 220 218 218 217 217 217 219 219 218 218 221 223 224 226 228 230 232 234 234 231 228 225 222 221 221 220 219 220 222 223 221 218 215 213 210 206 200 198 200 202 203 206 207 207 210 212 214 217 218
235 236 234 233 234 235 242 244 239 244 251 250 244 244 247 245 241 240 244 247 250 251 246 246 253 251 248 249 250 244 238 237 232 226 224 223 220 219 218 218 218 217 217 218 217 217 218 221 224 225 227 229 232 234 235 236 232 227 224 223 223 223 221 220 221 223 223 219 214 211 210 206 198 194 196 197 199 202 204 206 208 210 211 213 216 219
238 235 230 230 235 235 238 243 239 237 247 253 246 240 239 240 239 240 242 246 252 252 244 243 249 251 251 252 255 251 238 235 230 221 218 218 217 217 216 217 218 217 217 218 218 216 217 220 223 226 229 231 233 234 236 237 232 227 225 224 224 224 223 222 221 221 221 216 211 209 205 199 194 195 198 199 199 201 202 205 208 209 211 214 216 220
237 232 227 228 232 233 237 244 240 232 241 253 247 236 233 234 236 237 235 237 242 241 242 244 241 246 256 257 259 252 233 228 224 217 215 214 214 215 215 216 216 216 217 217 217 216 217 220 223 227 230 231 233 235 237 237 232 227 226 224 224 224 224 223 220 218 217 213 210 208 203 198 197 198 200 201 202 204 205 208 210 211 213 214 217 222
231 228 227 227 228 232 236 240 236 227 233 248 244 227 223 227 230 230 229 233 241 242 245 247 237 241 252 255 255 243 222 221 219 216 216 214 214 214 215 215 214 215 215 214 214 213 216 220 222 225 229 231 233 234 236 235 230 226 225 224 225 224 224 223 219 214 213 211 208 205 202 200 201 202 202 203 205 208 210 211 214 217 217 218 221 223
228 225 224 223 227 232 230 229 226 223 233 242 235 221 219 221 224 227 228 235 244 245 246 246 236 237 247 249 250 230 212 216 218 217 217 214 213 214 214 214 214 215 214 213 212 212 215 219 220 223 227 230 232 234 235 232 228 226 225 224 223 222 221 220 216 211 210 208 205 203 202 202 204 204 203 203 206 209 211 212 215 219 222 226 228 227
231 227 223 220 224 227 225 226 219 216 229 237 227 224 229 228 228 230 231 235 242 241 239 240 234 235 246 244 236 222 214 219 220 218 217 214 213 213 213 213 214 215 212 212 213 213 215 217 219 223 226 229 233 234 233 229 227 226 224 223 220 218 219 217 212 209 207 205 203 202 202 202 203 202 202 203 205 207 208 209 213 219 226 231 233 233
235 231 226 222 221 220 222 229 222 216 227 238 234 234 239 241 240 239 238 235 237 239 237 236 232 233 242 237 224 218 216 218 219 217 215 215 215 215 214 214 215 214 212 213 213 214 215 217 218 221 224 229 233 233 230 227 226 223 222 220 217 216 218 216 210 206 204 203 201 202 203 203 202 200 201 202 203 205 206 209 214 221 227 231 233 235
238 232 230 227 222 220 224 233 234 230 234 242 242 235 236 243 241 240 243 235 232 238 236 234 231 227 230 230 224 224 224 220 218 216 214 215 215 215 215 215 215 213 213 215 215 215 216 217 218 219 222 228 231 230 227 225 224 222 221 220 217 217 217 215 208 203 201 202 201 203 204 204 202 201 202 203 205 206 208 213 218 223 226 230 234 235
237 231 231 229 224 220 222 235 244 242 237 235 234 225 224 236 236 236 241 236 235 238 231 228 228 225 228 228 224 229 232 224 219 218 218 218 217 215 214 214 214 213 214 217 218 218 216 214 217 219 222 227 229 228 225 222 222 221 221 220 217 216 215 214 208 202 202 202 202 203 204 204 203 203 205 206 208 209 212 217 221 224 226 229 233 235
236 236 231 225 226 221 216 226 237 237 229 224 223 218 215 222 228 236 241 240 243 239 230 227 227 228 231 226 222 230 235 230 225 224 224 223 220 218 216 213 213 213 214 216 219 219 217 214 216 220 224 228 229 229 224 219 217 217 218 218 216 215 214 212 207 203 203 202 202 204 204 204 204 205 207 209 211 212 214 217 220 223 226 228 233 236
227 233 224 216 223 220 215 221 226 227 225 224 225 221 219 220 221 232 234 233 239 234 226 225 224 222 223 221 221 227 234 235 229 223 220 220 218 217 216 213 212 211 211 214 216 217 217 217 219 222 227 230 231 229 223 216 213 213 215 215 213 212 211 209 206 202 201 201 202 204 203 204 205 207 210 213 214 214 214 217 220 224 228 233 237 239
224 228 224 219 219 212 216 225 221 220 227 230 226 221 226 224 221 231 230 225 229 226 222 221 222 223 221 223 224 223 228 231 225 219 214 214 215 214 215 215 214 213 212 213 212 212 214 216 219 224 227 230 232 230 224 216 210 208 212 214 212 211 209 206 202 199 199 201 202 203 204 206 207 209 212 215 215 214 215 219 223 228 233 237 240 242
225 229 228 226 224 218 220 225 222 222 225 227 222 221 228 224 216 223 229 230 225 220 223 222 226 233 227 225 227 222 224 224 220 221 218 216 217 216 219 220 219 219 217 213 210 210 213 215 220 225 226 228 231 230 224 217 209 206 212 214 212 212 209 204 200 198 200 202 203 204 206 207 209 211 214 214 214 216 218 222 226 231 234 236 240 244
224 230 231 224 225 229 227 224 229 229 220 220 224 223 226 225 222 222 226 235 226 221 228 226 228 233 224 222 228 224 226 226 222 221 220 225 229 228 228 224 220 219 217 212 210 211 211 213 220 223 221 223 226 228 223 217 213 212 215 216 214 212 207 201 199 199 200 203 204 205 206 208 210 212 214 214 215 218 220 223 227 231 234 236 241 245
226 232 237 226 222 231 232 224 233 238 227 222 224 223 222 224 228 226 223 229 225 225 234 232 232 231 221 222 229 229 234 236 233 232 229 233 238 239 238 229 217 211 208 207 208 212 213 216 221 220 218 219 221 224 221 215 214 214 215 216 214 210 204 200 200 200 200 202 204 206 206 208 211 213 214 215 218 220 221 223 226 228 235 241 244 246
226 229 236 230 223 228 233 227 228 233 232 228 224 226 228 224 223 223 222 224 221 223 232 234 237 233 225 226 232 236 241 239 238 239 237 236 238 241 247 240 222 207 201 202 205 208 213 217 218 217 217 218 218 220 219 215 213 212 213 214 212 208 205 204 203 202 202 203 205 207 207 208 211 212 215 218 220 221 222 225 227 230 238 243 245 247
228 226 230 231 229 227 229 228 224 222 223 224 223 225 228 226 224 224 226 226 221 220 225 228 235 236 231 231 236 242 243 240 238 239 240 239 235 235 243 241 224 208 202 202 202 203 209 212 213 215 217 218 217 217 217 216 213 212 214 214 212 208 205 204 204 204 205 205 206 207 208 210 212 213 217 220 221 221 223 226 228 231 237 242 244 247
223 223 226 231 232 228 229 229 224 221 220 220 222 223 224 223 221 221 229 232 227 225 224 223 232 239 235 232 236 240 240 239 238 236 240 241 235 237 241 233 218 207 201 200 200 203 210 212 213 214 214 216 215 214 216 216 214 213 216 217 215 213 208 206 205 206 208 210 209 209 209 211 213 215 219 222 221 222 224 225 227 229 236 243 244 245
220 220 224 230 229 228 232 231 226 223 223 223 225 224 223 223 219 218 226 231 228 229 231 227 234 241 238 233 234 236 237 240 237 232 237 243 241 243 242 226 209 201 200 201 204 209 213 214 216 216 215 216 217 216 218 218 216 215 217 218 217 214 210 208 208 208 210 212 211 210 211 214 215 218 221 222 223 224 224 226 227 229 237 243 244 245
224 224 227 233 234 233 233 231 227 224 222 225 231 229 225 225 223 219 223 226 223 225 228 231 239 242 240 237 233 231 235 239 236 228 228 239 243 245 245 231 211 201 202 208 211 214 214 214 217 218 215 215 217 216 216 217 218 217 216 216 215 212 210 208 209 210 211 212 212 214 216 218 219 220 221 222 224 224 225 228 230 231 239 244 244 245
227 227 224 226 233 233 232 233 232 230 228 226 231 236 234 229 223 223 227 227 226 226 223 225 237 243 239 235 231 228 231 234 234 230 228 235 240 240 244 239 218 207 209 213 214 218 220 221 224 224 220 219 220 219 218 218 218 218 217 215 213 211 210 209 210 211 212 214 217 219 220 220 221 222 222 223 225 226 228 232 232 233 239 242 242 243
225 227 223 220 222 223 227 231 230 230 233 232 231 237 240 234 226 225 226 227 229 232 229 226 234 240 233 228 227 227 228 229 233 236 240 245 240 232 237 230 213 209 210 210 211 216 221 223 227 226 223 222 224 224 223 219 215 216 216 214 213 212 211 212 213 214 216 218 220 222 223 223 224 225 225 226 227 230 233 236 236 238 241 241 240 241
223 227 225 221 221 224 227 231 231 228 230 234 237 240 241 240 237 229 226 229 228 228 232 234 235 232 225 222 225 228 229 233 238 241 251 260 243 227 232 217 201 200 202 203 206 209 214 220 227 230 225 224 225 226 223 218 215 215 215 213 214 216 215 216 218 219 221 223 225 226 226 227 228 229 230 230 231 233 236 238 238 239 240 239 238 239
222 227 226 222 225 230 232 235 236 230 226 230 236 239 242 245 242 231 229 231 225 224 234 236 230 225 225 228 230 231 232 237 243 246 248 253 237 223 222 192 176 183 193 201 208 213 219 226 233 238 236 228 225 223 222 218 214 214 213 212 214 217 219 221 223 225 227 228 229 230 230 230 232 233 233 233 235 236 237 237 237 236 235 235 236 237
225 229 228 225 227 231 234 238 237 229 225 228 232 237 243 246 242 233 233 236 231 230 234 230 222 224 232 237 238 236 234 232 236 240 236 231 223 218 214 188 165 172 188 206 227 235 238 237 236 242 244 237 228 224 222 218 214 213 213 211 211 216 222 226 227 227 229 231 233 233 232 233 235 236 235 235 237 239 239 239 237 234 232 232 233 235
231 232 229 226 228 233 238 239 238 231 228 231 235 239 242 243 241 236 236 239 237 234 231 222 219 229 237 238 236 234 231 225 226 233 231 223 217 209 206 209 211 205 203 218 237 240 238 236 239 245 244 239 234 229 224 218 213 211 210 210 213 220 228 230 229 228 230 233 235 234 232 233 234 235 236 237 239 240 240 238 235 233 233 232 231 234
234 234 233 228 229 236 240 239 239 233 227 231 239 246 247 245 243 240 237 238 239 237 233 226 227 234 238 237 234 236 236 229 230 241 239 228 218 207 202 220 236 239 230 227 231 237 242 245 245 245 240 232 229 225 219 213 208 209 214 218 222 226 230 230 228 229 231 232 232 229 227 228 229 229 230 231 233 234 234 232 230 230 231 229 229 232
236 235 237 232 230 236 240 239 240 236 230 232 242 251 252 245 241 240 240 241 241 235 229 230 234 237 238 236 234 237 238 234 237 246 242 232 226 220 214 218 228 235 237 235 233 239 252 254 238 227 221 213 207 203 203 202 201 207 216 218 218 218 218 216 215 218 222 221 221 220 219 221 221 220 221 224 227 231 231 227 224 222 222 223 226 230
232 230 235 233 231 236 239 238 237 237 237 239 242 246 247 242 239 239 240 244 245 239 233 235 238 237 238 237 234 234 235 233 236 242 240 235 231 227 222 220 226 233 237 238 237 236 236 218 187 192 193 187 184 185 189 189 186 187 191 191 192 193 192 193 195 201 207 210 212 213 212 212 211 213 219 225 228 230 226 218 215 215 216 219 224 229
229 227 235 237 231 235 242 241 236 236 238 239 240 244 244 240 237 236 239 246 247 238 233 237 239 238 240 241 237 233 230 228 232 237 239 237 230 225 225 226 227 228 231 238 240 231 211 182 173 181 175 166 168 170 171 171 170 171 173 175 176 177 181 186 188 191 196 204 212 212 209 208 207 210 218 222 223 223 217 213 214 215 216 221 228 233
226 227 236 240 231 231 239 239 235 238 239 238 240 244 243 237 233 232 237 245 244 235 230 232 234 234 235 235 232 227 222 219 224 235 241 241 236 230 229 231 231 229 233 241 241 228 210 193 193 196 190 188 194 186 178 176 176 177 180 183 183 183 188 193 193 195 200 207 213 212 209 208 207 210 216 216 217 217 216 217 220 221 224 229 234 238
225 227 231 234 230 228 230 230 232 239 240 237 239 244 244 240 238 237 238 240 240 237 234 231 230 229 228 227 226 223 219 217 225 238 242 243 241 237 234 236 237 235 236 240 236 223 213 206 205 204 203 206 208 206 202 200 197 194 195 197 196 194 197 199 197 199 203 207 210 210 211 209 205 207 212 212 213 218 221 224 228 230 233 237 238 241
229 230 231 233 233 230 227 228 233 238 238 235 236 240 241 241 241 240 239 239 238 235 232 227 224 223 224 224 223 221 220 222 233 240 239 237 237 235 233 233 233 231 232 235 231 219 213 213 213 210 208 208 210 211 211 209 204 197 195 198 200 199 200 200 201 204 207 211 214 216 218 215 207 207 212 215 218 222 225 229 233 237 240 243 244 246
234 235 233 235 238 236 230 232 240 244 243 241 242 243 242 243 242 237 237 240 237 230 225 222 221 221 221 220 219 220 222 227 235 237 234 231 229 227 223 221 219 218 220 222 221 218 214 212 210 207 206 209 215 220 218 214 209 203 201 204 205 202 201 201 206 213 217 220 224 225 224 222 216 215 218 222 225 228 232 236 240 244 247 249 250 252
239 239 237 238 240 235 228 232 241 245 245 245 247 252 255 252 242 234 236 242 236 224 217 216 217 219 218 215 218 224 228 230 233 234 229 224 223 222 221 221 218 214 215 216 213 212 210 207 204 203 202 203 211 220 218 213 210 208 212 217 215 208 206 209 216 224 229 231 233 231 229 227 226 226 228 230 233 237 241 244 247 250 253 254 255 256
241 240 240 238 235 232 229 234 242 245 246 246 249 258 265 257 240 232 240 244 232 217 210 208 209 213 214 214 221 229 232 229 228 227 223 219 219 220 220 220 216 211 211 214 209 202 203 205 205 204 202 202 214 225 225 221 216 210 212 219 221 219 219 225 231 237 241 241 238 236 237 238 239 240 242 244 245 247 249 251 254 257 260 260 259 259
236 235 234 229 231 237 236 234 240 244 246 248 253 260 263 252 236 234 242 239 224 212 209 207 205 207 212 218 225 228 225 217 215 216 216 215 214 212 209 207 205 205 209 214 213 211 211 209 204 204 210 217 226 230 232 231 226 219 217 220 224 226 230 234 238 241 243 243 244 245 247 250 251 251 252 253 254 254 255 258 262 265 265 265 265 264
237 237 239 237 239 245 242 237 242 244 246 257 262 259 251 240 235 239 243 236 220 212 214 213 210 212 217 221 219 213 207 203 203 207 210 211 211 211 210 210 210 213 216 216 214 214 214 210 205 204 213 224 229 230 230 229 225 222 223 225 226 229 233 236 240 244 248 251 253 254 255 256 258 259 260 261 262 262 263 265 267 268 268 268 268 267
237 236 244 247 244 246 247 246 246 246 254 269 268 255 242 238 240 242 242 233 220 215 217 219 218 220 219 214 208 202 200 201 204 206 209 213 216 216 216 217 218 221 223 221 219 215 210 209 209 210 214 222 226 227 228 229 229 229 234 237 238 240 244 248 250 253 256 258 260 261 262 263 264 264 265 267 268 269 269 270 270 270 270 270 269 268
246 238 241 248 248 245 247 249 249 251 261 268 261 247 244 246 246 243 234 227 224 221 221 223 226 226 217 206 201 200 201 205 210 211 213 218 221 221 221 223 226 228 229 228 226 224 220 218 220 224 227 229 232 232 233 236 238 240 243 247 247 247 250 254 256 258 261 263 264 266 267 267 268 268 269 270 271 272 272 273 272 272 272 271 270 270
254 243 237 245 250 245 240 243 248 254 261 260 250 245 247 248 247 241 230 225 228 228 225 225 227 222 212 205 203 204 206 210 214 216 218 222 224 225 226 228 231 233 233 231 230 231 232 231 233 235 237 238 241 243 243 245 246 247 249 252 253 254 256 258 260 263 265 266 267 269 270 270 271 272 272 273 273 274 274 274 274 273 273 272 272 271
253 253 248 252 258 256 251 253 257 260 262 258 248 244 244 243 241 237 229 226 228 226 223 222 218 212 209 209 209 210 212 214 215 217 220 223 226 227 227 229 231 232 232 232 232 234 237 239 241 242 243 246 249 250 251 252 252 252 253 255 258 260 261 263 266 267 269 270 270 271 272 273 274 275 275 276 276 276 276 275 275 275 275 274 274 274
269 266 264 265 264 260 260 265 269 267 263 257 246 238 237 235 234 231 224 221 222 219 215 213 210 209 210 212 211 211 213 214 215 218 223 226 229 230 230 231 233 234 235 236 237 238 241 243 244 246 247 249 253 254 255 256 257 258 259 262 264 265 266 268 270 272 273 274 274 274 275 276 277 278 278 278 278 278 278 277 277 277 277 276 276 276
285 286 282 278 274 265 261 266 270 269 263 257 245 233 228 225 225 225 221 217 215 212 211 213 213 213 212 213 212 213 216 219 221 223 226 229 231 233 234 236 237 239 240 241 242 243 245 246 247 247 249 251 254 256 258 260 262 263 265 267 269 269 270 271 273 274 276 276 277 277 278 278 279 279 279 280 280 279 279 279 279 278 278 277 277 277
308 306 294 290 291 284 273 268 269 269 267 264 252 238 231 226 222 224 225 222 217 210 210 216 221 218 215 216 217 217 219 225 228 229 231 233 233 234 237 239 241 243 244 245 247 247 248 248 249 249 251 253 255 258 260 262 264 266 267 269 271 271 272 274 275 276 277 278 278 278 279 278 279 279 279 280 280 280 280 280 279 279 279 279 278 278
343 328 314 313 310 296 279 267 265 266 263 259 253 244 239 234 228 226 227 228 225 218 214 215 217 216 217 220 222 221 222 226 229 232 235 237 237 238 238 239 240 242 244 246 248 249 249 249 250 252 254 256 258 260 262 264 267 269 271 272 273 274 275 276 277 278 278 279 279 279 279 279 279 280 280 281 281 281 281 281 281 280 280 280 280 279
351 333 321 318 308 295 282 268 267 270 263 255 252 250 247 243 238 232 229 228 226 224 221 220 220 221 222 225 225 226 227 230 233 236 239 241 242 242 242 243 243 243 245 247 248 250 251 251 252 254 257 260 260 261 263 266 268 271 272 274 274 276 277 278 279 280 280 280 280 280 280 280 281 281 282 282 282 283 283 283 283 282 281 282 282 282